Dewpoint
22 25 25 27 25 23 24 25 27 29 28 29 30 32 34 35 38 41 44 48 52 57 57 57 57 57 57 56 56 56 55 54 52 53 53 54 53 53 54 54 54 53 53
20 22 21 24 20 20 21 23 25 25 26 27 28 29 31 33 35 37 39 43 45 48 50 56 57 56 56 56 56 56 55 55 54 52 53 53 53 54 53 53 53 52 53
18 19 20 20 18 18 20 21 22 23 24 25 26 27 29 31 32 35 37 37 38 39 40 43 45 51 56 56 56 56 56 55 55 54 53 54 54 55 54 53 53 52 51
16 17 18 18 17 18 19 20 21 21 22 23 24 25 28 29 30 34 34 35 35 36 38 40 40 42 45 51 55 55 56 55 55 54 53 53 53 53 53 51 48 46 49
15 15 15 17 16 17 19 19 20 21 20 22 23 24 26 27 28 32 32 32 33 33 36 36 39 39 37 40 44 48 53 55 54 53 52 52 51 46 46 50 49 50 47
13 14 15 15 15 17 17 18 18 19 19 21 22 23 24 24 30 32 32 31 31 32 33 34 36 36 40 40 41 42 45 48 51 53 52 51 50 51 49 49 49 48 46
13 13 14 14 14 16 16 16 17 18 19 20 21 22 23 24 28 29 29 28 29 31 32 32 32 33 35 38 39 39 40 41 44 48 49 51 50 51 51 48 48 49 48
12 12 13 14 14 15 16 16 16 18 19 19 20 21 22 21 26 27 28 27 27 28 30 31 32 32 32 34 36 38 39 41 42 43 47 50 52 51 52 51 49 47 48
11 11 11 13 13 14 15 15 17 18 18 18 19 19 20 20 24 25 24 23 23 24 23 26 28 30 32 34 36 35 35 35 37 39 41 43 45 47 49 50 44 41 41
9 10 10 12 13 14 14 15 17 17 16 17 17 19 20 19 21 23 22 22 21 21 24 24 25 26 30 31 32 33 32 32 33 35 36 37 39 43 45 47 49 43 44
7 8 9 10 12 13 14 15 16 16 16 17 16 18 18 18 18 21 23 20 21 22 20 21 21 24 25 26 28 27 30 33 35 35 36 37 38 41 46 48 47 48 45
4 5 7 10 11 11 14 14 15 15 16 16 16 16 16 15 18 19 22 22 22 21 20 18 19 23 24 27 29 29 30 32 34 35 34 35 37 39 43 46 45 47 48
3 5 7 8 10 10 10 11 11 12 13 13 13 14 14 14 15 17 20 20 20 19 18 20 20 20 20 21 23 25 28 33 34 34 34 35 37 39 41 43 42 43 43
2 3 3 5 6 7 6 6 8 9 9 10 11 12 12 12 11 14 15 18 18 17 18 16 16 16 16 16 15 17 18 20 21 33 35 37 38 40 41 43 41 39 39
1 0 1 2 4 3 3 5 4 6 8 10 12 11 10 11 10 14 14 14 14 14 14 13 12 11 10 10 11 12 13 16 16 18 18 32 36 37 38 40 39 38 37
-2 -3 -2 -1 -0 -1 -1 -0 3 5 8 9 9 9 10 10 13 13 13 13 12 11 7 7 6 6 6 7 7 8 9 11 13 15 17 18 31 35 36 36 36 36 35
-5 -3 -3 -3 -3 -3 -2 -2 -1 -1 3 4 6 7 8 8 11 11 11 11 7 6 -2 0 1 2 2 4 5 5 6 8 11 13 14 15 16 28 34 34 34 35 34
-7 -7 -4 -4 -4 -4 -4 -3 -3 -4 -5 -4 -1 3 3 6 9 8 8 4 -2 -1 -4 -3 -4 -2 -2 -0 2 1 2 4 6 9 11 13 14 16 20 32 33 33 33
-8 -7 -7 -7 -7 -7 -6 -6 -6 -7 -7 -7 -6 -5 -2 4 6 3 3 -5 -6 -6 -6 -6 -6 -5 -4 -4 -2 -3 -2 1 3 4 7 8 12 13 14 19 31 32 33
-9 -10 -11 -9 -9 -9 -9 -9 -9 -9 -10 -9 -9 -9 -8 -0 -6 -9 -8 -8 -8 -8 -7 -8 -8 -8 -7 -7 -5 -5 -6 -4 -1 0 3 4 8 12 12 16 20 31 32
-9 -11 -14 -12 -11 -11 -11 -11 -11 -11 -11 -11 -11 -9 3 -4 -10 -11 -11 -9 -9 -9 -9 -9 -10 -10 -9 -9 -8 -8 -8 -7 -5 -3 -2 2 5 9 11 14 18 24 32
-10 -12 -13 -13 -13 -13 -13 -13 -12 -13 -13 -13 -13 -11 -1 -12 -12 -12 -12 -12 -10 -10 -9 -10 -11 -11 -11 -11 -10 -11 -9 -9 -7 -7 -5 -1 4 8 10 11 14 21 27
-9 -12 -13 -14 -14 -15 -14 -13 -14 -14 -14 -14 -14 -14 -14 -13 -14 -14 -13 -12 -12 -12 -11 -11 -13 -14 -13 -12 -11 -11 -11 -10 -7 -6 -5 -2 6 7 8 9 12 15 21
-11 -12 -14 -15 -15 -16 -15 -15 -15 -16 -16 -15 -14 -14 -15 -15 -14 -14 -14 -13 -13 -13 -13 -14 -14 -16 -15 -15 -13 -12 -11 -10 -7 -6 -2 3 6 6 7 7 9 12 16
-12 -13 -15 -16 -16 -17 -17 -16 -16 -16 -16 -16 -15 -15 -15 -15 -16 -15 -15 -15 -16 -16 -16 -16 -16 -16 -16 -17 -17 -16 -13 -10 -7 -4 4 5 6 6 6 6 7 9 12
-13 -14 -16 -17 -17 -17 -17 -17 -17 -17 -17 -16 -16 -16 -16 -16 -17 -16 -16 -17 -17 -17 -18 -18 -17 -18 -18 -17 -16 -11 -10 -3 -1 2 3 7 6 5 5 6 6 7 10
Lifted_Index
9 8 8 8 8 8 8 8 8 7 7 7 7 7 8 7 7 6 5 4 2 1 -0 -1 -1 -1 -0 0 0 1 1 1 1 1 1 1 1 2 2 2 2 2 2
9 8 8 8 9 9 9 9 9 8 7 7 7 7 8 8 8 7 7 6 4 3 2 1 -0 -1 -1 -0 0 0 1 1 1 1 1 1 1 2 2 2 2 2 3
8 9 9 9 10 10 10 11 10 10 10 9 9 9 9 9 9 9 9 8 7 6 5 4 2 1 0 -0 -0 -0 -0 0 0 0 1 1 1 1 2 2 2 3 3
9 9 10 10 11 11 11 12 12 12 11 11 11 10 10 10 10 10 10 10 10 9 8 7 5 4 3 2 1 0 -0 -0 -0 0 0 1 1 1 1 2 2 3 3
10 10 11 11 12 12 12 12 12 12 12 11 11 11 11 11 11 11 11 11 11 10 10 9 8 7 6 5 4 3 2 1 0 0 0 1 1 1 1 1 2 2 3
11 11 12 12 12 12 12 12 12 12 12 12 11 11 10 11 11 11 11 11 11 10 10 10 10 10 9 8 7 5 4 3 2 2 1 1 1 1 1 1 1 2 2
12 12 12 12 12 12 12 12 12 12 12 11 11 11 11 11 11 12 11 11 11 11 11 10 10 10 10 9 9 8 7 6 4 3 2 2 1 1 1 1 1 2 2
12 12 13 13 13 13 12 12 12 12 12 12 12 12 12 12 13 13 12 12 11 11 11 11 11 11 10 10 10 9 8 7 6 6 5 4 3 3 2 2 2 2 3
13 13 14 14 14 13 13 13 13 13 13 13 14 14 14 14 14 15 14 14 13 13 13 13 12 12 12 12 11 10 9 9 8 7 7 6 5 4 3 2 2 2 2
14 14 15 15 14 14 14 14 15 15 15 15 15 15 15 16 16 16 16 16 15 14 14 14 14 14 14 13 13 11 10 10 9 9 8 7 6 6 5 4 3 2 2
15 15 15 15 15 15 15 16 16 16 16 16 16 16 17 17 18 18 18 18 17 16 16 15 16 16 15 15 14 13 12 12 11 10 9 8 7 6 6 5 4 3 2
15 15 16 16 16 16 17 17 17 17 16 16 16 17 17 18 19 20 20 20 19 18 17 17 17 17 17 16 15 14 14 13 12 10 9 9 8 7 6 6 5 4 3
15 16 16 17 17 17 18 18 17 17 17 17 17 17 18 19 20 21 22 22 21 20 19 18 17 17 17 17 16 16 15 14 13 12 11 10 9 8 8 7 6 5 4
16 16 16 17 17 18 18 18 18 18 18 18 18 18 19 20 21 23 23 23 22 21 19 18 17 16 16 16 16 16 16 15 14 13 12 12 11 10 9 8 7 6 5
15 16 16 17 17 18 18 19 19 20 20 20 20 20 20 21 22 23 23 23 22 21 19 17 15 14 13 13 14 14 15 15 14 14 14 14 13 11 9 8 7 6 5
16 16 16 17 18 18 18 19 20 21 21 22 22 22 22 22 22 22 22 21 20 19 17 15 14 13 12 12 12 13 13 14 14 14 14 14 13 12 10 9 7 6 5
17 17 17 18 18 18 19 19 19 20 20 21 21 21 21 21 20 20 19 18 17 16 15 14 13 13 13 13 13 13 13 14 14 14 14 14 14 13 11 9 8 7 6
18 18 18 19 19 19 19 19 18 18 18 18 19 19 19 19 18 18 17 17 16 15 15 14 14 14 15 15 15 15 15 15 15 14 14 13 13 13 12 11 10 9 8
19 19 19 19 19 19 18 18 18 17 17 17 17 18 18 17 17 17 17 16 16 15 15 15 16 16 16 17 17 17 17 16 16 15 14 14 14 13 13 12 12 11 11
18 19 19 18 18 18 18 17 17 16 16 16 16 16 17 17 16 16 17 17 17 16 17 17 17 17 18 18 18 18 18 17 17 17 16 15 15 14 14 13 13 13 12
18 18 18 18 17 17 17 17 16 16 15 15 15 16 17 16 16 16 17 18 18 18 18 18 18 19 19 19 19 19 19 18 18 18 17 17 16 15 15 14 13 13 13
18 18 17 17 17 17 17 16 16 16 15 15 15 16 16 16 16 17 17 18 19 19 20 20 20 20 20 21 21 21 20 20 20 20 19 18 18 17 16 16 14 13 13
18 17 17 17 16 16 16 16 16 16 15 15 15 16 16 16 16 17 17 18 19 20 20 21 20 21 21 22 23 23 22 22 22 22 21 20 19 19 18 17 16 15 14
17 17 16 16 16 15 15 15 15 15 15 15 15 15 16 16 16 17 17 18 19 19 20 20 21 21 22 22 23 24 24 24 24 23 22 22 21 20 19 18 17 16 15
16 16 16 15 15 15 15 15 15 15 15 15 16 16 16 16 16 17 18 18 19 19 19 20 20 21 21 22 23 24 24 24 24 24 23 23 22 21 20 19 18 17 17
16 16 15 15 15 15 15 15 15 15 15 15 16 16 16 16 17 17 17 18 18 19 19 19 20 21 21 22 22 23 24 24 24 24 24 24 23 22 21 20 19 18 18